When you browse on this site, cookies collect data to enhance your experience and personalize the content and advertising you see.
Visit our Privacy Policy to learn more. By continuing to use the site, you agree to this use of cookies and data.
  • In United Kingdom
  • List of Countries
  • For 7 days
  • Water Temperature
  • Weather Map
  • Weather Widgets
  • user-avatar
    Login

    Hourly Weather Eger

    Today, 4 April, Saturday

    Time Temperature Precipitation Wind Pressure Humidity
    00:00 +5°C° 0 mm 3 mps 746 mmHg 78%
    01:00 +4°C° 0 mm 3 mps 746 mmHg 78%
    02:00 +4°C° 0 mm 3 mps 746 mmHg 80%
    03:00 +4°C° 0 mm 3 mps 746 mmHg 81%
    04:00 +4°C° 0 mm 3 mps 747 mmHg 83%
    05:00 +5°C° 0 mm 3 mps 747 mmHg 79%
    06:00 +7°C° 0 mm 3 mps 748 mmHg 74%
    07:00 +6°C° 0 mm 4 mps 748 mmHg 69%
    08:00 +8°C° 0 mm 4 mps 748 mmHg 62%
    09:00 +10°C° 0 mm 4 mps 749 mmHg 55%
    10:00 +11°C° 0 mm 4 mps 749 mmHg 47%
    11:00 +12°C° 0 mm 4 mps 749 mmHg 44%
    12:00 +13°C° 0 mm 4 mps 749 mmHg 42%
    13:00 +14°C° 0 mm 4 mps 749 mmHg 39%
    14:00 +14°C° 0 mm 4 mps 749 mmHg 40%
    15:00 +13°C° 0 mm 5 mps 749 mmHg 42%
    16:00 +13°C° 0 mm 5 mps 749 mmHg 43%
    17:00 +10°C° 0 mm 5 mps 750 mmHg 47%
    18:00 +10°C° 0 mm 4 mps 750 mmHg 51%
    19:00 +7°C° 0 mm 4 mps 750 mmHg 55%
    20:00 +7°C° 0 mm 4 mps 751 mmHg 55%
    21:00 +6°C° 0 mm 4 mps 752 mmHg 56%
    22:00 +6°C° 0 mm 5 mps 752 mmHg 57%
    23:00 +5°C° 0 mm 5 mps 753 mmHg 59%

    Tomorrow, 5 April, Sunday

    Time Temperature Precipitation Wind Pressure Humidity
    00:00 +5°C° 0 mm 4 mps 753 mmHg 60%
    01:00 +4°C° 0 mm 4 mps 753 mmHg 62%
    02:00 +4°C° 0 mm 4 mps 753 mmHg 63%
    03:00 +4°C° 0 mm 4 mps 753 mmHg 64%
    04:00 +4°C° 0 mm 4 mps 753 mmHg 65%
    05:00 +3°C° 0 mm 5 mps 754 mmHg 63%
    06:00 +5°C° 0 mm 5 mps 754 mmHg 62%
    07:00 +6°C° 0 mm 5 mps 754 mmHg 60%
    08:00 +7°C° 0 mm 5 mps 754 mmHg 56%
    09:00 +10°C° 0 mm 4 mps 755 mmHg 53%
    10:00 +12°C° 0 mm 4 mps 755 mmHg 49%
    11:00 +13°C° 0 mm 4 mps 755 mmHg 47%
    12:00 +13°C° 0 mm 4 mps 755 mmHg 45%
    13:00 +14°C° 0 mm 4 mps 754 mmHg 44%
    14:00 +14°C° 0 mm 4 mps 754 mmHg 44%
    15:00 +14°C° 0 mm 3 mps 754 mmHg 44%
    16:00 +14°C° 0 mm 3 mps 753 mmHg 44%
    17:00 +12°C° 0 mm 3 mps 754 mmHg 50%
    18:00 +10°C° 0 mm 2 mps 754 mmHg 56%
    19:00 +9°C° 0 mm 2 mps 754 mmHg 61%
    20:00 +8°C° 0 mm 2 mps 754 mmHg 62%
    21:00 +8°C° 0 mm 2 mps 755 mmHg 62%
    22:00 +7°C° 0 mm 2 mps 755 mmHg 63%
    23:00 +7°C° 0 mm 2 mps 755 mmHg 66%

    Day after tomorrow, 6 April, Monday

    Time Temperature Precipitation Wind Pressure Humidity
    00:00 +6°C° 0 mm 2 mps 755 mmHg 68%
    01:00 +6°C° 0 mm 2 mps 755 mmHg 71%
    02:00 +5°C° 0 mm 2 mps 756 mmHg 71%
    03:00 +5°C° 0 mm 2 mps 756 mmHg 71%
    04:00 +4°C° 0 mm 2 mps 756 mmHg 71%
    05:00 +6°C° 0 mm 1 mps 756 mmHg 67%
    06:00 +7°C° 0 mm 1 mps 757 mmHg 63%
    07:00 +8°C° 0 mm 1 mps 757 mmHg 59%
    08:00 +10°C° 0 mm 1 mps 757 mmHg 53%
    09:00 +11°C° 0 mm 1 mps 758 mmHg 46%
    10:00 +13°C° 0 mm 1 mps 758 mmHg 39%
    11:00 +14°C° 0 mm 1 mps 758 mmHg 37%
    12:00 +15°C° 0 mm 1 mps 758 mmHg 36%
    13:00 +16°C° 0 mm 2 mps 757 mmHg 34%
    14:00 +15°C° 0 mm 2 mps 757 mmHg 35%
    15:00 +15°C° 0 mm 2 mps 757 mmHg 36%
    16:00 +15°C° 0 mm 2 mps 757 mmHg 36%
    17:00 +13°C° 0 mm 2 mps 756 mmHg 42%
    18:00 +12°C° 0 mm 1 mps 756 mmHg 47%
    19:00 +10°C° 0 mm 1 mps 756 mmHg 52%
    20:00 +9°C° 0 mm 1 mps 757 mmHg 54%
    21:00 +9°C° 0 mm 1 mps 757 mmHg 55%
    22:00 +8°C° 0 mm 1 mps 757 mmHg 56%
    23:00 +8°C° 0 mm 1 mps 757 mmHg 58%

    7 April, Tuesday

    Time Temperature Precipitation Wind Pressure Humidity
    00:00 +7°C° 0 mm 1 mps 757 mmHg 59%
    01:00 +7°C° 0 mm 1 mps 757 mmHg 61%
    02:00 +7°C° 0 mm 1 mps 757 mmHg 62%
    03:00 +6°C° 0 mm 1 mps 758 mmHg 63%
    04:00 +6°C° 0 mm 1 mps 758 mmHg 64%
    05:00 +7°C° 0 mm 1 mps 758 mmHg 62%
    06:00 +7°C° 0 mm 0 mps 758 mmHg 60%
    07:00 +8°C° 0 mm 0 mps 758 mmHg 57%
    08:00 +11°C° 0 mm 1 mps 758 mmHg 51%
    09:00 +13°C° 0 mm 1 mps 758 mmHg 45%
    10:00 +15°C° 0 mm 1 mps 758 mmHg 38%
    11:00 +18°C° 0 mm 1 mps 758 mmHg 35%
    12:00 +19°C° 0 mm 1 mps 758 mmHg 33%
    13:00 +20°C° 0 mm 1 mps 758 mmHg 30%
    14:00 +20°C° 0 mm 1 mps 758 mmHg 30%
    15:00 +19°C° 0 mm 1 mps 757 mmHg 30%
    16:00 +19°C° 0 mm 1 mps 757 mmHg 31%
    17:00 +16°C° 0 mm 1 mps 757 mmHg 37%
    18:00 +14°C° 0 mm 1 mps 756 mmHg 43%
    19:00 +12°C° 0 mm 1 mps 756 mmHg 49%
    20:00 +11°C° 0 mm 1 mps 756 mmHg 50%
    21:00 +11°C° 0 mm 1 mps 757 mmHg 51%
    22:00 +10°C° 0 mm 1 mps 757 mmHg 52%
    23:00 +10°C° 0 mm 1 mps 757 mmHg 51%

    8 April, Wednesday

    Time Temperature Precipitation Wind Pressure Humidity
    00:00 +9°C° 0 mm 1 mps 756 mmHg 51%
    01:00 +9°C° 0 mm 1 mps 756 mmHg 51%
    02:00 +9°C° 0 mm 1 mps 756 mmHg 52%
    03:00 +8°C° 0 mm 1 mps 756 mmHg 54%
    04:00 +8°C° 0 mm 1 mps 756 mmHg 55%
    05:00 +9°C° 0 mm 1 mps 756 mmHg 54%
    06:00 +10°C° 0 mm 1 mps 756 mmHg 54%
    07:00 +11°C° 0 mm 1 mps 756 mmHg 53%
    08:00 +13°C° 0 mm 1 mps 756 mmHg 49%
    09:00 +15°C° 0 mm 1 mps 756 mmHg 44%
    10:00 +18°C° 0 mm 1 mps 756 mmHg 40%
    11:00 +19°C° 0 mm 1 mps 755 mmHg 37%
    12:00 +20°C° 0 mm 1 mps 755 mmHg 35%
    13:00 +21°C° 0 mm 1 mps 754 mmHg 32%
    14:00 +20°C° 0 mm 1 mps 754 mmHg 33%
    15:00 +20°C° 0 mm 1 mps 753 mmHg 33%
    16:00 +20°C° 0 mm 1 mps 753 mmHg 34%
    17:00 +18°C° 0 mm 1 mps 752 mmHg 40%
    18:00 +15°C° 0 mm 1 mps 752 mmHg 45%
    19:00 +12°C° 0 mm 0 mps 752 mmHg 51%
    20:00 +12°C° 0 mm 1 mps 752 mmHg 52%
    21:00 +12°C° 0 mm 1 mps 752 mmHg 54%
    22:00 +11°C° 0 mm 1 mps 752 mmHg 55%
    23:00 +11°C° 0 mm 1 mps 752 mmHg 56%

    9 April, Thursday

    Time Temperature Precipitation Wind Pressure Humidity
    00:00 +10°C° 0 mm 1 mps 751 mmHg 56%
    01:00 +10°C° 0 mm 1 mps 751 mmHg 57%
    02:00 +10°C° 0 mm 1 mps 751 mmHg 58%
    03:00 +9°C° 0 mm 1 mps 751 mmHg 59%
    04:00 +9°C° 0 mm 1 mps 751 mmHg 59%
    05:00 +10°C° 0 mm 1 mps 751 mmHg 58%
    06:00 +10°C° 0 mm 0 mps 751 mmHg 56%
    07:00 +11°C° 0 mm 0 mps 751 mmHg 55%
    08:00 +14°C° 0 mm 1 mps 751 mmHg 49%
    09:00 +16°C° 0 mm 2 mps 751 mmHg 44%
    10:00 +18°C° 0 mm 2 mps 750 mmHg 39%
    11:00 +19°C° 0 mm 3 mps 750 mmHg 37%
    12:00 +19°C° 0 mm 3 mps 750 mmHg 35%
    13:00 +20°C° 0 mm 4 mps 749 mmHg 33%
    14:00 +20°C° 0 mm 4 mps 749 mmHg 35%
    15:00 +19°C° 0 mm 4 mps 748 mmHg 37%
    16:00 +19°C° 0 mm 4 mps 748 mmHg 39%
    17:00 +17°C° 0 mm 4 mps 748 mmHg 46%
    18:00 +14°C° 0 mm 3 mps 748 mmHg 53%
    19:00 +12°C° 0 mm 3 mps 747 mmHg 60%
    20:00 +12°C° 0 mm 3 mps 748 mmHg 62%
    21:00 +12°C° 0 mm 2 mps 748 mmHg 64%
    22:00 +12°C° 0 mm 2 mps 748 mmHg 65%
    23:00 +10°C° 0 mm 2 mps 748 mmHg 67%
    Show more